Weather in Underhaan

Mongolia     47°19′41″N   110°39′56″E
temp.,
°C
wind,
m/s
gust,
m/s
humid.,
%
clouds,
%
prec.,
mm/h
press.,
hPa
HPBL,
m
8 august, mon
mon823:00+12e12492 0.0 101311
02:00+11e11530 0.0 101311
05:00+10ssw0156100 0.0 101310
08:00+15wsw224446 0.0 1013217
11:00+20wnw33340 0.0 1012982
14:00+23wnw47335 0.0 10092187
17:00+21w125089 0.1 100825
20:00+16sse226315 0.6 100912
9 august, tue
tue923:00+15sw2269100 0.3 101016
02:00+16wnw116949 0.3 101011
05:00+13ne11750 0.0 101010
08:00+17ne23570 0.0 1010167
11:00+22nne22384 0.0 1009805
14:00+25n123219 0.0 10061481
17:00+25w133170 0.0 10051796
20:00+19sse114497 0.0 100611
10 august, wed
wed1023:00+19ese2345100 0.0 100629
02:00+18ssw2251100 0.1 100844
05:00+14s2393100 1.2 1008119
08:00+16sw338415 1.2 1007326
11:00+21w2161100 0.0 1006854
14:00+24w21461 0.0 10041512
17:00+25nw22421 0.0 10031686
20:00+19s1158100 0.0 100411
11 august, thu
thu1123:00+17e117085 0.4 100511
02:00+17ssw237331 1.0 100516
05:00+16w228072 0.1 100612
08:00+18nne47745 0.1 1008416
11:00+21nne44575 0.0 1007963
14:00+24nne2245100 0.0 10051566
17:00+23e3348100 0.0 1004352
20:00+16nne6990100 2.6 1006347
12 august, fri
fri1223:00+15e4692100 15.7 1007491
02:00+15ene118783 15.8 1006134
05:00+13ne119235 0.0 100616
08:00+16n25760 0.0 1006413
11:00+20nne4555100 0.0 10061007
14:00+23nne4539100 0.0 10051975
17:00+23nne3539100 0.0 10042077
20:00+20nw2249100 0.0 100613